Year,Month,Day,Hour,Minute,Value (Times are PST for temperature in C)
2017,06,23,00,00,11.40
2017,06,23,00,01,11.40
2017,06,23,00,02,11.40
2017,06,23,00,03,11.30
2017,06,23,00,04,11.30
2017,06,23,00,05,11.30
2017,06,23,00,06,11.30
2017,06,23,00,07,11.30
2017,06,23,00,08,11.30
2017,06,23,00,09,11.30
2017,06,23,00,10,11.30
2017,06,23,00,11,11.30
2017,06,23,00,12,11.20
2017,06,23,00,13,11.20
2017,06,23,00,14,11.20
2017,06,23,00,15,11.20
2017,06,23,00,16,11.20
2017,06,23,00,17,11.20
2017,06,23,00,18,11.20
2017,06,23,00,19,11.20
2017,06,23,00,20,11.20
2017,06,23,00,21,11.20
2017,06,23,00,22,11.10
2017,06,23,00,23,11.10
2017,06,23,00,24,11.10
2017,06,23,00,25,11.10
2017,06,23,00,26,11.10
2017,06,23,00,27,11.10
2017,06,23,00,28,11.10
2017,06,23,00,29,11.10
2017,06,23,00,30,11.10
2017,06,23,00,31,11.00
2017,06,23,00,32,11.00
2017,06,23,00,33,11.00
2017,06,23,00,34,11.00
2017,06,23,00,35,11.00
2017,06,23,00,36,11.10
2017,06,23,00,37,11.10
2017,06,23,00,38,11.20
2017,06,23,00,39,11.20
2017,06,23,00,40,11.30
2017,06,23,00,41,11.30
2017,06,23,00,42,11.30
2017,06,23,00,43,11.40
2017,06,23,00,44,11.40
2017,06,23,00,45,11.40
2017,06,23,00,46,11.50
2017,06,23,00,47,11.50
2017,06,23,00,48,11.50
2017,06,23,00,49,11.50
2017,06,23,00,50,11.50
2017,06,23,00,51,11.50
2017,06,23,00,52,11.60
2017,06,23,00,53,11.60
2017,06,23,00,54,11.60
2017,06,23,00,55,11.60
2017,06,23,00,56,11.60
2017,06,23,00,57,11.60
2017,06,23,00,58,11.50
2017,06,23,00,59,11.50
2017,06,23,01,00,11.50
2017,06,23,01,01,11.50
2017,06,23,01,02,11.50
2017,06,23,01,03,11.50
2017,06,23,01,04,11.50
2017,06,23,01,05,11.50
2017,06,23,01,06,11.40
2017,06,23,01,07,11.40
2017,06,23,01,08,11.40
2017,06,23,01,09,11.40
2017,06,23,01,10,11.40
2017,06,23,01,11,11.30
2017,06,23,01,12,11.30
2017,06,23,01,13,11.30
2017,06,23,01,14,11.30
2017,06,23,01,15,11.30
2017,06,23,01,16,11.20
2017,06,23,01,17,11.20
2017,06,23,01,18,11.20
2017,06,23,01,19,11.20
2017,06,23,01,20,11.20
2017,06,23,01,21,11.20
2017,06,23,01,22,11.20
2017,06,23,01,23,11.20
2017,06,23,01,24,11.20
2017,06,23,01,25,11.20
2017,06,23,01,26,11.20
2017,06,23,01,27,11.20
2017,06,23,01,28,11.20
2017,06,23,01,29,11.20
2017,06,23,01,30,11.20
2017,06,23,01,31,11.20
2017,06,23,01,32,11.20
2017,06,23,01,33,11.20
2017,06,23,01,34,11.20
2017,06,23,01,35,11.20
2017,06,23,01,36,11.10
2017,06,23,01,37,11.10
2017,06,23,01,38,11.10
2017,06,23,01,39,11.10
2017,06,23,01,40,11.10
2017,06,23,01,41,11.00
2017,06,23,01,42,11.00
2017,06,23,01,43,10.90
2017,06,23,01,44,10.90
2017,06,23,01,45,10.90
2017,06,23,01,46,10.80
2017,06,23,01,47,10.80
2017,06,23,01,48,10.80
2017,06,23,01,49,10.80
2017,06,23,01,50,10.70
2017,06,23,01,51,10.70
2017,06,23,01,52,10.70
2017,06,23,01,53,10.70
2017,06,23,01,54,10.70
2017,06,23,01,55,10.70
2017,06,23,01,56,10.60
2017,06,23,01,57,10.60
2017,06,23,01,58,10.60
2017,06,23,01,59,10.70
2017,06,23,02,00,10.60
2017,06,23,02,01,10.60
2017,06,23,02,02,10.60
2017,06,23,02,03,10.60
2017,06,23,02,04,10.60
2017,06,23,02,05,10.60
2017,06,23,02,06,10.60
2017,06,23,02,07,10.60
2017,06,23,02,08,10.60
2017,06,23,02,09,10.50
2017,06,23,02,10,10.50
2017,06,23,02,11,10.50
2017,06,23,02,12,10.50
2017,06,23,02,13,10.50
2017,06,23,02,14,10.50
2017,06,23,02,15,10.40
2017,06,23,02,16,10.40
2017,06,23,02,17,10.40
2017,06,23,02,18,10.40
2017,06,23,02,19,10.40
2017,06,23,02,20,10.40
2017,06,23,02,21,10.40
2017,06,23,02,22,10.40
2017,06,23,02,23,10.40
2017,06,23,02,24,10.40
2017,06,23,02,25,10.40
2017,06,23,02,26,10.30
2017,06,23,02,27,10.30
2017,06,23,02,28,10.30
2017,06,23,02,29,10.30
2017,06,23,02,30,10.30
2017,06,23,02,31,10.30
2017,06,23,02,32,10.30
2017,06,23,02,33,10.20
2017,06,23,02,34,10.20
2017,06,23,02,35,10.20
2017,06,23,02,36,10.20
2017,06,23,02,37,10.20
2017,06,23,02,38,10.20
2017,06,23,02,39,10.20
2017,06,23,02,40,10.20
2017,06,23,02,41,10.10
2017,06,23,02,42,10.10
2017,06,23,02,43,10.10
2017,06,23,02,44,10.10
2017,06,23,02,45,10.10
2017,06,23,02,46,10.10
2017,06,23,02,47,10.10
2017,06,23,02,48,10.00
2017,06,23,02,49,10.00
2017,06,23,02,50,10.00
2017,06,23,02,51,10.00
2017,06,23,02,52,10.00
2017,06,23,02,53,10.00
2017,06,23,02,54,9.90
2017,06,23,02,55,9.90
2017,06,23,02,56,9.90
2017,06,23,02,57,9.90
2017,06,23,02,58,9.90
2017,06,23,02,59,9.90
2017,06,23,03,00,9.90
2017,06,23,03,01,9.90
2017,06,23,03,02,9.90
2017,06,23,03,03,9.90
2017,06,23,03,04,9.90
2017,06,23,03,05,9.90
2017,06,23,03,06,9.90
2017,06,23,03,07,9.90
2017,06,23,03,08,9.90
2017,06,23,03,09,9.90
2017,06,23,03,10,9.90
2017,06,23,03,11,9.90
2017,06,23,03,12,9.90
2017,06,23,03,13,9.90
2017,06,23,03,14,9.90
2017,06,23,03,15,9.90
2017,06,23,03,16,10.00
2017,06,23,03,17,9.90
2017,06,23,03,18,9.90
2017,06,23,03,19,9.90
2017,06,23,03,20,9.90
2017,06,23,03,21,9.90
2017,06,23,03,22,9.90
2017,06,23,03,23,9.90
2017,06,23,03,24,9.90
2017,06,23,03,25,9.90
2017,06,23,03,26,9.90
2017,06,23,03,27,9.90
2017,06,23,03,28,9.90
2017,06,23,03,29,9.80
2017,06,23,03,30,9.80
2017,06,23,03,31,9.80
2017,06,23,03,32,9.80
2017,06,23,03,33,9.80
2017,06,23,03,34,9.80
2017,06,23,03,35,9.80
2017,06,23,03,36,9.80
2017,06,23,03,37,9.80
2017,06,23,03,38,9.80
2017,06,23,03,39,9.80
2017,06,23,03,40,9.80
2017,06,23,03,41,9.80
2017,06,23,03,42,9.70
2017,06,23,03,43,9.70
2017,06,23,03,44,9.70
2017,06,23,03,45,9.70
2017,06,23,03,46,9.70
2017,06,23,03,47,9.70
2017,06,23,03,48,9.70
2017,06,23,03,49,9.70
2017,06,23,03,50,9.70
2017,06,23,03,51,9.70
2017,06,23,03,52,9.70
2017,06,23,03,53,9.70
2017,06,23,03,54,9.70
2017,06,23,03,55,9.70
2017,06,23,03,56,9.60
2017,06,23,03,57,9.60
2017,06,23,03,58,9.60
2017,06,23,03,59,9.60
2017,06,23,04,00,9.60
2017,06,23,04,01,9.60
2017,06,23,04,02,9.60
2017,06,23,04,03,9.60
2017,06,23,04,04,9.60
2017,06,23,04,05,9.60
2017,06,23,04,06,9.70
2017,06,23,04,07,9.70
2017,06,23,04,08,9.70
2017,06,23,04,09,9.60
2017,06,23,04,10,9.60
2017,06,23,04,11,9.60
2017,06,23,04,12,9.60
2017,06,23,04,13,9.60
2017,06,23,04,14,9.60
2017,06,23,04,15,9.60
2017,06,23,04,16,9.60
2017,06,23,04,17,9.60
2017,06,23,04,18,9.70
2017,06,23,04,19,9.70
2017,06,23,04,20,9.70
2017,06,23,04,21,9.70
2017,06,23,04,22,9.70
2017,06,23,04,23,9.70
2017,06,23,04,24,9.70
2017,06,23,04,25,9.70
2017,06,23,04,26,9.70
2017,06,23,04,27,9.70
2017,06,23,04,28,9.70
2017,06,23,04,29,9.70
2017,06,23,04,30,9.70
2017,06,23,04,31,9.70
2017,06,23,04,32,9.70
2017,06,23,04,33,9.70
2017,06,23,04,34,9.60
2017,06,23,04,35,9.60
2017,06,23,04,36,9.60
2017,06,23,04,37,9.60
2017,06,23,04,38,9.50
2017,06,23,04,39,9.50
2017,06,23,04,40,9.50
2017,06,23,04,41,9.50
2017,06,23,04,42,9.40
2017,06,23,04,43,9.40
2017,06,23,04,44,9.40
2017,06,23,04,45,9.40
2017,06,23,04,46,9.40
2017,06,23,04,47,9.40
2017,06,23,04,48,9.40
2017,06,23,04,49,9.40
2017,06,23,04,50,9.40
2017,06,23,04,51,9.40
2017,06,23,04,52,9.40
2017,06,23,04,53,9.40
2017,06,23,04,54,9.40
2017,06,23,04,55,9.40
2017,06,23,04,56,9.40
2017,06,23,04,57,9.40
2017,06,23,04,58,9.40
2017,06,23,04,59,9.30
2017,06,23,05,00,9.30
2017,06,23,05,01,9.30
2017,06,23,05,02,9.30
2017,06,23,05,03,9.30
2017,06,23,05,04,9.30
2017,06,23,05,05,9.30
2017,06,23,05,06,9.30
2017,06,23,05,07,9.30
2017,06,23,05,08,9.30
2017,06,23,05,09,9.30
2017,06,23,05,10,9.30
2017,06,23,05,11,9.30
2017,06,23,05,12,9.30
2017,06,23,05,13,9.30
2017,06,23,05,14,9.30
2017,06,23,05,15,9.30
2017,06,23,05,16,9.30
2017,06,23,05,17,9.30
2017,06,23,05,18,9.30
2017,06,23,05,19,9.30
2017,06,23,05,20,9.30
2017,06,23,05,21,9.30
2017,06,23,05,22,9.30
2017,06,23,05,23,9.30
2017,06,23,05,24,9.40
2017,06,23,05,25,9.40
2017,06,23,05,26,9.40
2017,06,23,05,27,9.40
2017,06,23,05,28,9.40
2017,06,23,05,29,9.40
2017,06,23,05,30,9.50
2017,06,23,05,31,9.50
2017,06,23,05,32,9.50
2017,06,23,05,33,9.50
2017,06,23,05,34,9.60
2017,06,23,05,35,9.60
2017,06,23,05,36,9.60
2017,06,23,05,37,9.70
2017,06,23,05,38,9.70
2017,06,23,05,39,9.70
2017,06,23,05,40,9.70
2017,06,23,05,41,9.70
2017,06,23,05,42,9.70
2017,06,23,05,43,9.70
2017,06,23,05,44,9.80
2017,06,23,05,45,9.80
2017,06,23,05,46,9.80
2017,06,23,05,47,9.80
2017,06,23,05,48,9.90
2017,06,23,05,49,9.90
2017,06,23,05,50,9.90
2017,06,23,05,51,9.90
2017,06,23,05,52,9.90
2017,06,23,05,53,9.90
2017,06,23,05,54,9.90
2017,06,23,05,55,10.00
2017,06,23,05,56,10.00
2017,06,23,05,57,10.10
2017,06,23,05,58,10.10
2017,06,23,05,59,10.20
2017,06,23,06,00,10.20
2017,06,23,06,01,10.20
2017,06,23,06,02,10.30
2017,06,23,06,03,10.30
2017,06,23,06,04,10.30
2017,06,23,06,05,10.40
2017,06,23,06,06,10.40
2017,06,23,06,07,10.50
2017,06,23,06,08,10.50
2017,06,23,06,09,10.60
2017,06,23,06,10,10.60
2017,06,23,06,11,10.70
2017,06,23,06,12,10.70
2017,06,23,06,13,10.80
2017,06,23,06,14,10.90
2017,06,23,06,15,10.90
2017,06,23,06,16,11.00
2017,06,23,06,17,11.10
2017,06,23,06,18,11.10
2017,06,23,06,19,11.20
2017,06,23,06,20,11.30
2017,06,23,06,21,11.30
2017,06,23,06,22,11.40
2017,06,23,06,23,11.50
2017,06,23,06,24,11.50
2017,06,23,06,25,11.60
2017,06,23,06,26,11.60
2017,06,23,06,27,11.70
2017,06,23,06,28,11.70
2017,06,23,06,29,11.70
2017,06,23,06,30,11.70
2017,06,23,06,31,11.80
2017,06,23,06,32,11.80
2017,06,23,06,33,11.80
2017,06,23,06,34,11.80
2017,06,23,06,35,11.90
2017,06,23,06,36,11.90
2017,06,23,06,37,12.00
2017,06,23,06,38,12.10
2017,06,23,06,39,12.10
2017,06,23,06,40,12.20
2017,06,23,06,41,12.30
2017,06,23,06,42,12.30
2017,06,23,06,43,12.30
2017,06,23,06,44,12.30
2017,06,23,06,45,12.30
2017,06,23,06,46,12.30
2017,06,23,06,47,12.30
2017,06,23,06,48,12.30
2017,06,23,06,49,12.20
2017,06,23,06,50,12.20
2017,06,23,06,51,12.20
2017,06,23,06,52,12.20
2017,06,23,06,53,12.20
2017,06,23,06,54,12.20
2017,06,23,06,55,12.20
2017,06,23,06,56,12.10
2017,06,23,06,57,12.10
2017,06,23,06,58,12.10
2017,06,23,06,59,12.10
2017,06,23,07,00,12.10
2017,06,23,07,01,12.10
2017,06,23,07,02,12.10
2017,06,23,07,03,12.10
2017,06,23,07,04,12.20
2017,06,23,07,05,12.20
2017,06,23,07,06,12.20
2017,06,23,07,07,12.30
2017,06,23,07,08,12.30
2017,06,23,07,09,12.40
2017,06,23,07,10,12.50
2017,06,23,07,11,12.50
2017,06,23,07,12,12.60
2017,06,23,07,13,12.70
2017,06,23,07,14,12.70
2017,06,23,07,15,12.80
2017,06,23,07,16,12.90
2017,06,23,07,17,13.00
2017,06,23,07,18,13.10
2017,06,23,07,19,13.20
2017,06,23,07,20,13.30
2017,06,23,07,21,13.40
2017,06,23,07,22,13.50
2017,06,23,07,23,13.60
2017,06,23,07,24,13.60
2017,06,23,07,25,13.70
2017,06,23,07,26,13.80
2017,06,23,07,27,13.90
2017,06,23,07,28,13.90
2017,06,23,07,29,14.00
2017,06,23,07,30,14.20
2017,06,23,07,31,14.20
2017,06,23,07,32,14.30
2017,06,23,07,33,14.40
2017,06,23,07,34,14.40
2017,06,23,07,35,14.50
2017,06,23,07,36,14.50
2017,06,23,07,37,14.60
2017,06,23,07,38,14.60
2017,06,23,07,39,14.70
2017,06,23,07,40,14.70
2017,06,23,07,41,14.70
2017,06,23,07,42,14.80
2017,06,23,07,43,14.80
2017,06,23,07,44,14.90
2017,06,23,07,45,15.00
2017,06,23,07,46,15.10
2017,06,23,07,47,15.20
2017,06,23,07,48,15.20
2017,06,23,07,49,15.30
2017,06,23,07,50,15.40
2017,06,23,07,51,15.40
2017,06,23,07,52,15.50
2017,06,23,07,53,15.50
2017,06,23,07,54,15.60
2017,06,23,07,55,15.70
2017,06,23,07,56,15.70
2017,06,23,07,57,15.80
2017,06,23,07,58,15.80
2017,06,23,07,59,15.80
2017,06,23,08,00,15.90
2017,06,23,08,01,16.00
2017,06,23,08,02,16.10
2017,06,23,08,03,16.10
2017,06,23,08,04,16.20
2017,06,23,08,05,16.20
2017,06,23,08,06,16.20
2017,06,23,08,07,16.30
2017,06,23,08,08,16.30
2017,06,23,08,09,16.30
2017,06,23,08,10,16.40
2017,06,23,08,11,16.40
2017,06,23,08,12,16.40
2017,06,23,08,13,16.40
2017,06,23,08,14,16.40
2017,06,23,08,15,16.50
2017,06,23,08,16,16.50
2017,06,23,08,17,16.60
2017,06,23,08,18,16.60
2017,06,23,08,19,16.60
2017,06,23,08,20,16.70
2017,06,23,08,21,16.70
2017,06,23,08,22,16.70
2017,06,23,08,23,16.80
2017,06,23,08,24,16.80
2017,06,23,08,25,16.80
2017,06,23,08,26,16.90
2017,06,23,08,27,16.90
2017,06,23,08,28,16.90
2017,06,23,08,29,16.90
2017,06,23,08,30,17.00
2017,06,23,08,31,17.00
2017,06,23,08,32,17.10
2017,06,23,08,33,17.10
2017,06,23,08,34,17.20
2017,06,23,08,35,17.20
2017,06,23,08,36,17.20
2017,06,23,08,37,17.20
2017,06,23,08,38,17.30
2017,06,23,08,39,17.30
2017,06,23,08,40,17.30
2017,06,23,08,41,17.30
2017,06,23,08,42,17.30
2017,06,23,08,43,17.40
2017,06,23,08,44,17.40
2017,06,23,08,45,17.40
2017,06,23,08,46,17.40
2017,06,23,08,47,17.40
2017,06,23,08,48,17.40
2017,06,23,08,49,17.40
2017,06,23,08,50,17.50
2017,06,23,08,51,17.50
2017,06,23,08,52,17.50
2017,06,23,08,53,17.60
2017,06,23,08,54,17.60
2017,06,23,08,55,17.70
2017,06,23,08,56,17.70
2017,06,23,08,57,17.70
2017,06,23,08,58,17.70
2017,06,23,08,59,17.70
2017,06,23,09,00,17.70
2017,06,23,09,01,17.60
2017,06,23,09,02,17.60
2017,06,23,09,03,17.60
2017,06,23,09,04,17.60
2017,06,23,09,05,17.60
2017,06,23,09,06,17.70
2017,06,23,09,07,17.70
2017,06,23,09,08,17.70
2017,06,23,09,09,17.80
2017,06,23,09,10,17.80
2017,06,23,09,11,17.80
2017,06,23,09,12,17.90
2017,06,23,09,13,17.90
2017,06,23,09,14,18.00
2017,06,23,09,15,18.10
2017,06,23,09,16,18.10
2017,06,23,09,17,18.10
2017,06,23,09,18,18.10
2017,06,23,09,19,18.10
2017,06,23,09,20,18.10
2017,06,23,09,21,18.10
2017,06,23,09,22,18.20
2017,06,23,09,23,18.20
2017,06,23,09,24,18.20
2017,06,23,09,25,18.20
2017,06,23,09,26,18.30
2017,06,23,09,27,18.30
2017,06,23,09,28,18.30
2017,06,23,09,29,18.30
2017,06,23,09,30,18.40
2017,06,23,09,31,18.40
2017,06,23,09,32,18.50
2017,06,23,09,33,18.60
2017,06,23,09,34,18.60
2017,06,23,09,35,18.60
2017,06,23,09,36,18.60
2017,06,23,09,37,18.60
2017,06,23,09,38,18.50
2017,06,23,09,39,18.50
2017,06,23,09,40,18.50
2017,06,23,09,41,18.50
2017,06,23,09,42,18.60
2017,06,23,09,43,18.60
2017,06,23,09,44,18.60
2017,06,23,09,45,18.60
2017,06,23,09,46,18.60
2017,06,23,09,47,18.50
2017,06,23,09,48,18.50
2017,06,23,09,49,18.50
2017,06,23,09,50,18.50
2017,06,23,09,51,18.60
2017,06,23,09,52,18.60
2017,06,23,09,53,18.60
2017,06,23,09,54,18.60
2017,06,23,09,55,18.60
2017,06,23,09,56,18.70
2017,06,23,09,57,18.80
2017,06,23,09,58,18.90
2017,06,23,09,59,18.90
2017,06,23,10,00,18.90
2017,06,23,10,01,18.90
2017,06,23,10,02,19.00
2017,06,23,10,03,19.10
2017,06,23,10,04,19.10
2017,06,23,10,05,19.20
2017,06,23,10,06,19.20
2017,06,23,10,07,19.20
2017,06,23,10,08,19.20
2017,06,23,10,09,19.30
2017,06,23,10,10,19.30
2017,06,23,10,11,19.30
2017,06,23,10,12,19.40
2017,06,23,10,13,19.40
2017,06,23,10,14,19.40
2017,06,23,10,15,19.40
2017,06,23,10,16,19.40
2017,06,23,10,17,19.40
2017,06,23,10,18,19.40
2017,06,23,10,19,19.40
2017,06,23,10,20,19.40
2017,06,23,10,21,19.40
2017,06,23,10,22,19.40
2017,06,23,10,23,19.40
2017,06,23,10,24,19.40
2017,06,23,10,25,19.40
2017,06,23,10,26,19.40
2017,06,23,10,27,19.40
2017,06,23,10,28,19.40
2017,06,23,10,29,19.50
2017,06,23,10,30,19.50
2017,06,23,10,31,19.60
2017,06,23,10,32,19.70
2017,06,23,10,33,19.70
2017,06,23,10,34,19.70
2017,06,23,10,35,19.70
2017,06,23,10,36,19.70
2017,06,23,10,37,19.80
2017,06,23,10,38,19.80
2017,06,23,10,39,19.90
2017,06,23,10,40,19.90
2017,06,23,10,41,19.90
2017,06,23,10,42,19.90
2017,06,23,10,43,19.90
2017,06,23,10,44,19.90
2017,06,23,10,45,20.00
2017,06,23,10,46,20.00
2017,06,23,10,47,20.10
2017,06,23,10,48,20.10
2017,06,23,10,49,20.10
2017,06,23,10,50,20.10
2017,06,23,10,51,20.20
2017,06,23,10,52,20.20
2017,06,23,10,53,20.20
2017,06,23,10,54,20.30
2017,06,23,10,55,20.30
2017,06,23,10,56,20.30
2017,06,23,10,57,20.40
2017,06,23,10,58,20.40
2017,06,23,10,59,20.50
2017,06,23,11,00,20.50
2017,06,23,11,01,20.40
2017,06,23,11,02,20.40
2017,06,23,11,03,20.30
2017,06,23,11,04,20.30
2017,06,23,11,05,20.30
2017,06,23,11,06,20.40
2017,06,23,11,07,20.40
2017,06,23,11,08,20.40
2017,06,23,11,09,20.40
2017,06,23,11,10,20.40
2017,06,23,11,11,20.40
2017,06,23,11,12,20.40
2017,06,23,11,13,20.50
2017,06,23,11,14,20.50
2017,06,23,11,15,20.50
2017,06,23,11,16,20.50
2017,06,23,11,17,20.50
2017,06,23,11,18,20.60
2017,06,23,11,19,20.60
2017,06,23,11,20,20.60
2017,06,23,11,21,20.60
2017,06,23,11,22,20.60
2017,06,23,11,23,20.50
2017,06,23,11,24,20.60
2017,06,23,11,25,20.60
2017,06,23,11,26,20.60
2017,06,23,11,27,20.70
2017,06,23,11,28,20.70
2017,06,23,11,29,20.80
2017,06,23,11,30,20.80
2017,06,23,11,31,20.80
2017,06,23,11,32,20.70
2017,06,23,11,33,20.80
2017,06,23,11,34,20.80
2017,06,23,11,35,20.80
2017,06,23,11,36,20.90
2017,06,23,11,37,21.00
2017,06,23,11,38,21.00
2017,06,23,11,39,21.10
2017,06,23,11,40,21.10
2017,06,23,11,41,21.10
2017,06,23,11,42,21.10
2017,06,23,11,43,21.10
2017,06,23,11,44,21.10
2017,06,23,11,45,21.20
2017,06,23,11,46,21.20
2017,06,23,11,47,21.20
2017,06,23,11,48,21.20
2017,06,23,11,49,21.30
2017,06,23,11,50,21.30
2017,06,23,11,51,21.40
2017,06,23,11,52,21.50
2017,06,23,11,53,21.50
2017,06,23,11,54,21.60
2017,06,23,11,55,21.60
2017,06,23,11,56,21.60
2017,06,23,11,57,21.50
2017,06,23,11,58,21.50
2017,06,23,11,59,21.50
2017,06,23,12,00,21.50
2017,06,23,12,01,21.50
2017,06,23,12,02,21.50
2017,06,23,12,03,21.50
2017,06,23,12,04,21.60
2017,06,23,12,05,21.60
2017,06,23,12,06,21.60
2017,06,23,12,07,21.70
2017,06,23,12,08,21.70
2017,06,23,12,09,21.60
2017,06,23,12,10,21.60
2017,06,23,12,11,21.60
2017,06,23,12,12,21.50
2017,06,23,12,13,21.50
2017,06,23,12,14,21.40
2017,06,23,12,15,21.50
2017,06,23,12,16,21.50
2017,06,23,12,17,21.60
2017,06,23,12,18,21.60
2017,06,23,12,19,21.60
2017,06,23,12,20,21.70
2017,06,23,12,21,21.70
2017,06,23,12,22,21.70
2017,06,23,12,23,21.70
2017,06,23,12,24,21.80
2017,06,23,12,25,21.80
2017,06,23,12,26,21.80
2017,06,23,12,27,21.90
2017,06,23,12,28,21.90
2017,06,23,12,29,21.90
2017,06,23,12,30,22.00
2017,06,23,12,31,22.00
2017,06,23,12,32,22.10
2017,06,23,12,33,22.10
2017,06,23,12,34,22.10
2017,06,23,12,35,22.10
2017,06,23,12,36,22.10
2017,06,23,12,37,22.10
2017,06,23,12,38,22.10
2017,06,23,12,39,22.10
2017,06,23,12,40,22.10
2017,06,23,12,41,22.20
2017,06,23,12,42,22.20
2017,06,23,12,43,22.30
2017,06,23,12,44,22.20
2017,06,23,12,45,22.20
2017,06,23,12,46,22.30
2017,06,23,12,47,22.30
2017,06,23,12,48,22.30
2017,06,23,12,49,22.20
2017,06,23,12,50,22.20
2017,06,23,12,51,22.20
2017,06,23,12,52,22.20
2017,06,23,12,53,22.20
2017,06,23,12,54,22.30
2017,06,23,12,55,22.30
2017,06,23,12,56,22.30
2017,06,23,12,57,22.40
2017,06,23,12,58,22.50
2017,06,23,12,59,22.60
2017,06,23,13,00,22.60
2017,06,23,13,01,22.60
2017,06,23,13,02,22.60
2017,06,23,13,03,22.60
2017,06,23,13,04,22.60
2017,06,23,13,05,22.60
2017,06,23,13,06,22.70
2017,06,23,13,07,22.70
2017,06,23,13,08,22.80
2017,06,23,13,09,22.80
2017,06,23,13,10,22.90
2017,06,23,13,11,22.90
2017,06,23,13,12,23.00
2017,06,23,13,13,23.10
2017,06,23,13,14,23.10
2017,06,23,13,15,23.20
2017,06,23,13,16,23.30
2017,06,23,13,17,23.30
2017,06,23,13,18,23.30
2017,06,23,13,19,23.30
2017,06,23,13,20,23.30
2017,06,23,13,21,23.30
2017,06,23,13,22,23.30
2017,06,23,13,23,23.30
2017,06,23,13,24,23.30
2017,06,23,13,25,23.30
2017,06,23,13,26,23.30
2017,06,23,13,27,23.30
2017,06,23,13,28,23.30
2017,06,23,13,29,23.30
2017,06,23,13,30,23.30
2017,06,23,13,31,23.30
2017,06,23,13,32,23.30
2017,06,23,13,33,23.30
2017,06,23,13,34,23.30
2017,06,23,13,35,23.30
2017,06,23,13,36,23.40
2017,06,23,13,37,23.50
2017,06,23,13,38,23.50
2017,06,23,13,39,23.60
2017,06,23,13,40,23.60
2017,06,23,13,41,23.60
2017,06,23,13,42,23.60
2017,06,23,13,43,23.60
2017,06,23,13,44,23.60
2017,06,23,13,45,23.70
2017,06,23,13,46,23.70
2017,06,23,13,47,23.70
2017,06,23,13,48,23.70
2017,06,23,13,49,23.70
2017,06,23,13,50,23.60
2017,06,23,13,51,23.60
2017,06,23,13,52,23.60
2017,06,23,13,53,23.60
2017,06,23,13,54,23.70
2017,06,23,13,55,23.70
2017,06,23,13,56,23.70
2017,06,23,13,57,23.70
2017,06,23,13,58,23.60
2017,06,23,13,59,23.60
2017,06,23,14,00,23.60
2017,06,23,14,01,23.50
2017,06,23,14,02,23.50
2017,06,23,14,03,23.50
2017,06,23,14,04,23.40
2017,06,23,14,05,23.40
2017,06,23,14,06,23.40
2017,06,23,14,07,23.40
2017,06,23,14,08,23.50
2017,06,23,14,09,23.60
2017,06,23,14,10,23.60
2017,06,23,14,11,23.70
2017,06,23,14,12,23.70
2017,06,23,14,13,23.70
2017,06,23,14,14,23.70
2017,06,23,14,15,23.70
2017,06,23,14,16,23.70
2017,06,23,14,17,23.60
2017,06,23,14,18,23.60
2017,06,23,14,19,23.60
2017,06,23,14,20,23.50
2017,06,23,14,21,23.40
2017,06,23,14,22,23.40
2017,06,23,14,23,23.40
2017,06,23,14,24,23.40
2017,06,23,14,25,23.50
2017,06,23,14,26,23.60
2017,06,23,14,27,23.60
2017,06,23,14,28,23.70
2017,06,23,14,29,23.70
2017,06,23,14,30,23.60
2017,06,23,14,31,23.60
2017,06,23,14,32,23.70
2017,06,23,14,33,23.70
2017,06,23,14,34,23.70
2017,06,23,14,35,23.70
2017,06,23,14,36,23.70
2017,06,23,14,37,23.80
2017,06,23,14,38,23.80
2017,06,23,14,39,23.80
2017,06,23,14,40,23.80
2017,06,23,14,41,23.80
2017,06,23,14,42,23.90
2017,06,23,14,43,23.90
2017,06,23,14,44,23.90
2017,06,23,14,45,23.90
2017,06,23,14,46,23.90
2017,06,23,14,47,23.80
2017,06,23,14,48,23.80
2017,06,23,14,49,23.80
2017,06,23,14,50,23.90
2017,06,23,14,51,23.90
2017,06,23,14,52,24.00
2017,06,23,14,53,24.00
2017,06,23,14,54,24.10
2017,06,23,14,55,24.10
2017,06,23,14,56,24.10
2017,06,23,14,57,24.20
2017,06,23,14,58,24.10
2017,06,23,14,59,24.10
2017,06,23,15,00,24.10
2017,06,23,15,01,24.00
2017,06,23,15,02,24.10
2017,06,23,15,03,24.10
2017,06,23,15,04,24.00
2017,06,23,15,05,24.00
2017,06,23,15,06,24.10
2017,06,23,15,07,24.10
2017,06,23,15,08,24.10
2017,06,23,15,09,24.10
2017,06,23,15,10,24.10
2017,06,23,15,11,24.10
2017,06,23,15,12,24.10
2017,06,23,15,13,24.20
2017,06,23,15,14,24.20
2017,06,23,15,15,24.20
2017,06,23,15,16,24.20
2017,06,23,15,17,24.20
2017,06,23,15,18,24.20
2017,06,23,15,19,24.30
2017,06,23,15,20,24.30
2017,06,23,15,21,24.40
2017,06,23,15,22,24.40
2017,06,23,15,23,24.50
2017,06,23,15,24,24.60
2017,06,23,15,25,24.60
2017,06,23,15,26,24.70
2017,06,23,15,27,24.70
2017,06,23,15,28,24.80
2017,06,23,15,29,24.70
2017,06,23,15,30,24.70
2017,06,23,15,31,24.70
2017,06,23,15,32,24.70
2017,06,23,15,33,24.70
2017,06,23,15,34,24.70
2017,06,23,15,35,24.70
2017,06,23,15,36,24.70
2017,06,23,15,37,24.70
2017,06,23,15,38,24.70
2017,06,23,15,39,24.70
2017,06,23,15,40,24.80
2017,06,23,15,41,24.70
2017,06,23,15,42,24.70
2017,06,23,15,43,24.70
2017,06,23,15,44,24.60
2017,06,23,15,45,24.60
2017,06,23,15,46,24.60
2017,06,23,15,47,24.60
2017,06,23,15,48,24.60
2017,06,23,15,49,24.60
2017,06,23,15,50,24.70
2017,06,23,15,51,24.70
2017,06,23,15,52,24.70
2017,06,23,15,53,24.70
2017,06,23,15,54,24.70
2017,06,23,15,55,24.80
2017,06,23,15,56,24.90
2017,06,23,15,57,24.90
2017,06,23,15,58,25.00
2017,06,23,15,59,25.00
2017,06,23,16,00,25.00
2017,06,23,16,01,25.10
2017,06,23,16,02,25.10
2017,06,23,16,03,25.00
2017,06,23,16,04,25.00
2017,06,23,16,05,25.10
2017,06,23,16,06,25.10
2017,06,23,16,07,25.10
2017,06,23,16,08,25.10
2017,06,23,16,09,25.20
2017,06,23,16,10,25.20
2017,06,23,16,11,25.20
2017,06,23,16,12,25.30
2017,06,23,16,13,25.30
2017,06,23,16,14,25.30
2017,06,23,16,15,25.30
2017,06,23,16,16,25.30
2017,06,23,16,17,25.30
2017,06,23,16,18,25.30
2017,06,23,16,19,25.30
2017,06,23,16,20,25.30
2017,06,23,16,21,25.30
2017,06,23,16,22,25.30
2017,06,23,16,23,25.30
2017,06,23,16,24,25.20
2017,06,23,16,25,25.20
2017,06,23,16,26,25.20
2017,06,23,16,27,25.20
2017,06,23,16,28,25.20
2017,06,23,16,29,25.20
2017,06,23,16,30,25.20
2017,06,23,16,31,25.20
2017,06,23,16,32,25.20
2017,06,23,16,33,25.20
2017,06,23,16,34,25.20
2017,06,23,16,35,25.20
2017,06,23,16,36,25.20
2017,06,23,16,37,25.20
2017,06,23,16,38,25.20
2017,06,23,16,39,25.20
2017,06,23,16,40,25.20
2017,06,23,16,41,25.20
2017,06,23,16,42,25.20
2017,06,23,16,43,25.10
2017,06,23,16,44,25.10
2017,06,23,16,45,25.10
2017,06,23,16,46,25.20
2017,06,23,16,47,25.20
2017,06,23,16,48,25.20
2017,06,23,16,49,25.20
2017,06,23,16,50,25.10
2017,06,23,16,51,25.10
2017,06,23,16,52,25.00
2017,06,23,16,53,24.90
2017,06,23,16,54,24.80
2017,06,23,16,55,24.70
2017,06,23,16,56,24.60
2017,06,23,16,57,24.50
2017,06,23,16,58,24.40
2017,06,23,16,59,24.30
2017,06,23,17,00,24.20
2017,06,23,17,01,24.20
2017,06,23,17,02,24.10
2017,06,23,17,03,24.10
2017,06,23,17,04,24.10
2017,06,23,17,05,24.10
2017,06,23,17,06,24.10
2017,06,23,17,07,24.10
2017,06,23,17,08,24.10
2017,06,23,17,09,24.10
2017,06,23,17,10,24.20
2017,06,23,17,11,24.20
2017,06,23,17,12,24.20
2017,06,23,17,13,24.20
2017,06,23,17,14,24.20
2017,06,23,17,15,24.20
2017,06,23,17,16,24.10
2017,06,23,17,17,23.90
2017,06,23,17,18,23.80
2017,06,23,17,19,23.80
2017,06,23,17,20,23.70
2017,06,23,17,21,23.60
2017,06,23,17,22,23.50
2017,06,23,17,23,23.50
2017,06,23,17,24,23.40
2017,06,23,17,25,23.30
2017,06,23,17,26,23.30
2017,06,23,17,27,23.30